Tracking 20724 objects as of 2-Jun-2020
HD Live streaming from Space Station
objects crossing your sky now

FREGAT DEB

Track FREGAT DEB now!
10-day predictions


NORAD ID: 44608
Int'l Code: 2017-042CB
Perigee: 497.0 km
Apogee: 605.4 km
Inclination: 97.6 °
Period: 95.5 minutes
Semi major axis: 6922 km
RCS: Unknown
Launch date: July 14, 2017
Source: Commonwealth of Independent States (former USSR) (CIS)
Launch site: TYURATAM MISSILE AND SPACE COMPLEX (TTMTR)

Note: This is SATELLITE DEBRIS
aabbcc
Your satellite tracking list
Your tracking list is empty




NASA's NSSDC Master Catalog

Two Line Element Set (TLE):
1 44608U 17042CB  20152.19231532 +.00000115 +00000-0 +11389-4 0  9995
2 44608 097.5724 061.6281 0078293 200.4439 159.3651 15.07420683133264
Source of the keplerian elements: AFSPC